Time,TemperatureF,DewpointF,PressureIn,WindDirection,WindDirectionDegrees,WindSpeedMPH,WindSpeedGustMPH,Humidity,HourlyPrecipIn,Conditions,Clouds,dailyrainin,SoftwareType,DateUTC
2013-06-26 00:02:00,77.1,73.6,29.67,SSE,162,4.0,4.0,89,0.00,,,0.00,Wunderground v.1.15,2013-06-26 05:02:00,
2013-06-26 00:08:00,77.0,73.8,29.66,SSE,152,2.0,6.0,90,0.00,,,0.00,Wunderground v.1.15,2013-06-26 05:08:00,
2013-06-26 00:13:00,76.9,73.7,29.66,South,170,7.0,7.0,90,0.00,,,0.00,Wunderground v.1.15,2013-06-26 05:13:00,
2013-06-26 00:18:00,76.9,73.7,29.65,South,176,7.0,10.0,90,0.00,,,0.00,Wunderground v.1.15,2013-06-26 05:18:00,
2013-06-26 00:24:00,77.1,73.9,29.65,SSE,166,8.0,9.0,90,0.00,,,0.00,Wunderground v.1.15,2013-06-26 05:24:00,
2013-06-26 00:30:00,77.3,73.8,29.65,South,185,6.0,9.0,89,0.00,,,0.00,Wunderground v.1.15,2013-06-26 05:30:00,
2013-06-26 00:36:00,77.2,73.7,29.64,SSE,154,7.0,10.0,89,0.00,,,0.00,Wunderground v.1.15,2013-06-26 05:36:00,
2013-06-26 00:43:00,77.2,74.0,29.64,SSE,164,8.0,8.0,90,0.00,,,0.00,Wunderground v.1.15,2013-06-26 05:43:00,
2013-06-26 00:48:00,77.1,73.9,29.64,SSE,156,7.0,9.0,90,0.00,,,0.00,Wunderground v.1.15,2013-06-26 05:48:00,
2013-06-26 00:54:00,77.1,73.9,29.64,SSE,165,7.0,8.0,90,0.00,,,0.00,Wunderground v.1.15,2013-06-26 05:54:00,
2013-06-26 01:00:00,77.1,73.9,29.64,SSE,157,10.0,10.0,90,0.00,,,0.00,Wunderground v.1.15,2013-06-26 06:00:00,
2013-06-26 01:06:00,77.0,73.8,29.64,South,180,11.0,11.0,90,0.00,,,0.00,Wunderground v.1.15,2013-06-26 06:06:00,
2013-06-26 01:12:00,77.1,73.9,29.63,South,179,9.0,9.0,90,0.00,,,0.00,Wunderground v.1.15,2013-06-26 06:12:00,
2013-06-26 01:18:00,76.9,73.7,29.62,South,175,7.0,11.0,90,0.00,,,0.00,Wunderground v.1.15,2013-06-26 06:18:00,
2013-06-26 01:23:00,76.9,73.7,29.61,SSE,155,9.0,10.0,90,0.00,,,0.00,Wunderground v.1.15,2013-06-26 06:23:00,
2013-06-26 01:37:00,76.4,73.6,29.63,SSE,162,7.0,8.0,91,0.00,,,0.00,Wunderground v.1.15,2013-06-26 06:37:00,
2013-06-26 01:42:00,76.2,73.7,29.63,South,169,9.0,9.0,92,0.00,,,0.00,Wunderground v.1.15,2013-06-26 06:42:00,
2013-06-26 01:48:00,76.1,73.6,29.62,SSE,160,8.0,9.0,92,0.00,,,0.00,Wunderground v.1.15,2013-06-26 06:48:00,
2013-06-26 01:53:00,76.0,73.5,29.62,SSE,162,7.0,9.0,92,0.00,,,0.00,Wunderground v.1.15,2013-06-26 06:53:00,
2013-06-26 01:58:00,76.1,73.9,29.61,South,173,6.0,11.0,93,0.00,,,0.00,Wunderground v.1.15,2013-06-26 06:58:00,
2013-06-26 02:03:00,76.1,73.9,29.62,South,171,5.0,8.0,93,0.00,,,0.01,Wunderground v.1.15,2013-06-26 07:03:00,
2013-06-26 02:08:00,76.0,73.8,29.63,SE,142,2.0,8.0,93,0.20,,,0.02,Wunderground v.1.15,2013-06-26 07:08:00,
2013-06-26 02:13:00,75.9,73.7,29.63,South,179,1.0,3.0,93,0.08,,,0.02,Wunderground v.1.15,2013-06-26 07:13:00,
2013-06-26 02:18:00,75.8,73.9,29.65,ENE,76,2.0,3.0,94,0.05,,,0.02,Wunderground v.1.15,2013-06-26 07:18:00,
2013-06-26 02:23:00,75.1,72.0,29.66,ENE,57,5.0,10.0,90,0.04,,,0.03,Wunderground v.1.15,2013-06-26 07:23:00,
2013-06-26 02:28:00,72.5,68.1,29.67,NNE,30,7.0,10.0,86,0.04,,,0.03,Wunderground v.1.15,2013-06-26 07:28:00,
2013-06-26 02:33:00,70.9,66.2,29.66,East,83,2.0,6.0,85,0.04,,,0.03,Wunderground v.1.15,2013-06-26 07:33:00,
2013-06-26 02:38:00,70.1,65.7,29.67,ENE,69,5.0,12.0,86,0.04,,,0.03,Wunderground v.1.15,2013-06-26 07:38:00,
2013-06-26 02:43:00,69.7,65.3,29.67,SE,128,5.0,8.0,86,0.00,,,0.03,Wunderground v.1.15,2013-06-26 07:43:00,
2013-06-26 02:48:00,69.0,65.0,29.68,NE,43,4.0,10.0,87,0.00,,,0.03,Wunderground v.1.15,2013-06-26 07:48:00,
2013-06-26 02:53:00,68.4,64.7,29.69,NE,49,2.0,5.0,88,0.00,,,0.03,Wunderground v.1.15,2013-06-26 07:53:00,
2013-06-26 02:58:00,67.9,64.5,29.68,ENE,67,4.0,7.0,89,0.00,,,0.03,Wunderground v.1.15,2013-06-26 07:58:00,
2013-06-26 03:03:00,67.4,64.4,29.68,ENE,71,3.0,5.0,90,0.00,,,0.03,Wunderground v.1.15,2013-06-26 08:03:00,
2013-06-26 03:08:00,66.9,64.2,29.69,ENE,77,1.0,7.0,91,0.00,,,0.03,Wunderground v.1.15,2013-06-26 08:08:00,
2013-06-26 03:13:00,66.7,64.3,29.69,NE,48,3.0,8.0,92,0.00,,,0.03,Wunderground v.1.15,2013-06-26 08:13:00,
2013-06-26 03:18:00,66.5,64.4,29.67,East,94,4.0,8.0,93,0.00,,,0.03,Wunderground v.1.15,2013-06-26 08:18:00,
2013-06-26 03:23:00,66.4,64.3,29.67,ENE,75,2.0,4.0,93,0.00,,,0.03,Wunderground v.1.15,2013-06-26 08:23:00,
2013-06-26 03:28:00,66.5,64.7,29.66,NE,51,2.0,6.0,94,0.00,,,0.04,Wunderground v.1.15,2013-06-26 08:28:00,
2013-06-26 03:33:00,66.5,64.7,29.66,ENE,73,5.0,7.0,94,0.00,,,0.04,Wunderground v.1.15,2013-06-26 08:33:00,
2013-06-26 03:38:00,66.5,64.7,29.67,ENE,74,2.0,7.0,94,0.00,,,0.04,Wunderground v.1.15,2013-06-26 08:38:00,
2013-06-26 03:43:00,66.5,64.7,29.67,ENE,73,3.0,4.0,94,0.00,,,0.04,Wunderground v.1.15,2013-06-26 08:43:00,
2013-06-26 03:48:00,66.5,64.7,29.66,ENE,76,4.0,6.0,94,0.00,,,0.05,Wunderground v.1.15,2013-06-26 08:48:00,
2013-06-26 03:53:00,66.5,64.7,29.66,ENE,74,2.0,5.0,94,0.00,,,0.05,Wunderground v.1.15,2013-06-26 08:53:00,
2013-06-26 03:58:00,66.4,64.6,29.66,East,90,4.0,6.0,94,0.06,,,0.06,Wunderground v.1.15,2013-06-26 08:58:00,
2013-06-26 04:03:00,66.5,64.7,29.65,East,83,3.0,6.0,94,0.06,,,0.06,Wunderground v.1.15,2013-06-26 09:03:00,
2013-06-26 04:08:00,66.4,64.6,29.64,ENE,74,3.0,6.0,94,0.04,,,0.06,Wunderground v.1.15,2013-06-26 09:08:00,
2013-06-26 04:13:00,66.5,64.7,29.65,ENE,67,3.0,4.0,94,0.00,,,0.06,Wunderground v.1.15,2013-06-26 09:13:00,
2013-06-26 04:18:00,66.5,65.0,29.64,East,92,1.0,5.0,95,0.00,,,0.06,Wunderground v.1.15,2013-06-26 09:18:00,
2013-06-26 04:23:00,66.5,65.0,29.64,NE,51,0.0,2.0,95,0.00,,,0.06,Wunderground v.1.15,2013-06-26 09:23:00,
2013-06-26 04:28:00,66.5,65.0,29.64,SSW,196,0.0,3.0,95,0.00,,,0.07,Wunderground v.1.15,2013-06-26 09:28:00,
2013-06-26 04:33:00,66.6,65.1,29.64,SSW,196,0.0,1.0,95,0.00,,,0.07,Wunderground v.1.15,2013-06-26 09:33:00,
2013-06-26 04:38:00,66.7,65.2,29.64,South,177,2.0,4.0,95,0.00,,,0.07,Wunderground v.1.15,2013-06-26 09:38:00,
2013-06-26 04:43:00,66.8,65.3,29.65,SSE,159,2.0,2.0,95,0.00,,,0.07,Wunderground v.1.15,2013-06-26 09:43:00,
2013-06-26 04:48:00,66.9,65.4,29.65,SSE,152,0.0,4.0,95,0.00,,,0.07,Wunderground v.1.15,2013-06-26 09:48:00,
2013-06-26 04:53:00,67.0,65.5,29.65,SSE,152,0.0,1.0,95,0.00,,,0.07,Wunderground v.1.15,2013-06-26 09:53:00,
2013-06-26 04:58:00,67.1,65.6,29.66,SSE,161,2.0,5.0,95,0.00,,,0.07,Wunderground v.1.15,2013-06-26 09:58:00,
2013-06-26 05:03:00,67.1,65.6,29.65,SE,146,1.0,2.0,95,0.00,,,0.07,Wunderground v.1.15,2013-06-26 10:03:00,
2013-06-26 05:08:00,67.1,65.6,29.65,South,171,2.0,5.0,95,0.00,,,0.07,Wunderground v.1.15,2013-06-26 10:08:00,
2013-06-26 05:13:00,67.2,65.7,29.65,South,186,4.0,5.0,95,0.00,,,0.07,Wunderground v.1.15,2013-06-26 10:13:00,
2013-06-26 05:18:00,67.3,65.8,29.65,SSE,166,0.0,6.0,95,0.00,,,0.07,Wunderground v.1.15,2013-06-26 10:18:00,
2013-06-26 05:23:00,67.3,65.8,29.65,SSE,167,4.0,4.0,95,0.00,,,0.07,Wunderground v.1.15,2013-06-26 10:23:00,
2013-06-26 05:28:00,67.4,65.9,29.65,South,170,1.0,5.0,95,0.00,,,0.07,Wunderground v.1.15,2013-06-26 10:28:00,
2013-06-26 05:35:00,67.4,65.9,29.65,South,170,1.0,2.0,95,0.00,,,0.07,Wunderground v.1.15,2013-06-26 10:35:00,
2013-06-26 05:40:00,67.5,66.0,29.65,South,170,1.0,2.0,95,0.00,,,0.07,Wunderground v.1.15,2013-06-26 10:40:00,
2013-06-26 05:45:00,67.6,66.1,29.66,South,170,2.0,4.0,95,0.00,,,0.07,Wunderground v.1.15,2013-06-26 10:45:00,
2013-06-26 05:50:00,67.7,66.2,29.66,South,170,1.0,4.0,95,0.00,,,0.07,Wunderground v.1.15,2013-06-26 10:50:00,
2013-06-26 05:55:00,67.7,66.2,29.66,South,170,1.0,4.0,95,0.00,,,0.07,Wunderground v.1.15,2013-06-26 10:55:00,
2013-06-26 06:00:00,67.8,66.3,29.66,South,170,0.0,1.0,95,0.00,,,0.07,Wunderground v.1.15,2013-06-26 11:00:00,
2013-06-26 06:05:00,67.8,66.3,29.66,South,170,0.0,2.0,95,0.00,,,0.07,Wunderground v.1.15,2013-06-26 11:05:00,
2013-06-26 06:10:00,67.8,66.3,29.66,South,170,0.0,1.0,95,0.00,,,0.07,Wunderground v.1.15,2013-06-26 11:10:00,
2013-06-26 06:15:00,67.9,66.4,29.67,South,170,0.0,1.0,95,0.00,,,0.07,Wunderground v.1.15,2013-06-26 11:15:00,
2013-06-26 06:20:00,68.0,66.5,29.67,South,169,1.0,2.0,95,0.00,,,0.07,Wunderground v.1.15,2013-06-26 11:20:00,
2013-06-26 06:25:00,67.9,66.4,29.67,SSE,153,0.0,4.0,95,0.00,,,0.07,Wunderground v.1.15,2013-06-26 11:25:00,
2013-06-26 06:30:00,67.9,66.4,29.68,SSE,152,2.0,5.0,95,0.00,,,0.07,Wunderground v.1.15,2013-06-26 11:30:00,
2013-06-26 06:35:00,67.9,66.4,29.68,SSE,154,2.0,5.0,95,0.00,,,0.07,Wunderground v.1.15,2013-06-26 11:35:00,
2013-06-26 06:40:00,67.9,66.1,29.67,SE,145,2.0,6.0,94,0.00,,,0.07,Wunderground v.1.15,2013-06-26 11:40:00,
2013-06-26 06:45:00,67.9,66.4,29.67,SSE,147,4.0,5.0,95,0.00,,,0.07,Wunderground v.1.15,2013-06-26 11:45:00,
2013-06-26 06:50:00,67.9,66.4,29.67,SSE,167,4.0,8.0,95,0.00,,,0.07,Wunderground v.1.15,2013-06-26 11:50:00,
2013-06-26 06:55:00,67.9,66.4,29.67,SSE,166,8.0,9.0,95,0.00,,,0.07,Wunderground v.1.15,2013-06-26 11:55:00,
2013-06-26 07:00:00,67.8,66.0,29.67,SSE,155,8.0,8.0,94,0.00,,,0.07,Wunderground v.1.15,2013-06-26 12:00:00,
2013-06-26 07:05:00,67.9,66.4,29.67,South,173,7.0,10.0,95,0.00,,,0.07,Wunderground v.1.15,2013-06-26 12:05:00,
2013-06-26 07:10:00,68.0,66.2,29.66,South,184,5.0,8.0,94,0.00,,,0.07,Wunderground v.1.15,2013-06-26 12:10:00,
2013-06-26 07:15:00,68.2,66.7,29.66,South,178,8.0,9.0,95,0.00,,,0.07,Wunderground v.1.15,2013-06-26 12:15:00,
2013-06-26 07:20:00,68.4,66.6,29.66,SSE,159,6.0,9.0,94,0.00,,,0.07,Wunderground v.1.15,2013-06-26 12:20:00,
2013-06-26 07:25:00,68.5,66.7,29.66,South,189,5.0,9.0,94,0.00,,,0.07,Wunderground v.1.15,2013-06-26 12:25:00,
2013-06-26 07:30:00,68.6,66.8,29.66,South,190,6.0,9.0,94,0.00,,,0.07,Wunderground v.1.15,2013-06-26 12:30:00,
2013-06-26 07:35:00,68.8,67.0,29.66,South,184,9.0,9.0,94,0.00,,,0.07,Wunderground v.1.15,2013-06-26 12:35:00,
2013-06-26 07:40:00,69.0,67.2,29.66,SSW,192,7.0,9.0,94,0.00,,,0.07,Wunderground v.1.15,2013-06-26 12:40:00,
2013-06-26 07:45:00,69.3,67.5,29.66,South,189,6.0,11.0,94,0.00,,,0.07,Wunderground v.1.15,2013-06-26 12:45:00,
2013-06-26 07:50:00,69.6,67.5,29.66,South,170,7.0,11.0,93,0.00,,,0.07,Wunderground v.1.15,2013-06-26 12:50:00,
2013-06-26 07:55:00,70.0,67.9,29.66,SW,215,8.0,12.0,93,0.00,,,0.07,Wunderground v.1.15,2013-06-26 12:55:00,
2013-06-26 08:02:00,70.8,68.4,29.66,South,184,9.0,9.0,92,0.00,,,0.07,Wunderground v.1.15,2013-06-26 13:02:00,
2013-06-26 08:07:00,71.5,68.7,29.66,South,188,7.0,13.0,91,0.00,,,0.07,Wunderground v.1.15,2013-06-26 13:07:00,
2013-06-26 08:12:00,71.7,68.3,29.66,SSE,168,9.0,9.0,89,0.00,,,0.07,Wunderground v.1.15,2013-06-26 13:12:00,
2013-06-26 08:17:00,71.8,68.1,29.67,South,177,6.0,12.0,88,0.00,,,0.07,Wunderground v.1.15,2013-06-26 13:17:00,
2013-06-26 08:22:00,71.8,68.4,29.67,South,184,4.0,7.0,89,0.00,,,0.07,Wunderground v.1.15,2013-06-26 13:22:00,
2013-06-26 08:28:00,71.7,67.6,29.67,SE,144,7.0,10.0,87,0.00,,,0.07,Wunderground v.1.15,2013-06-26 13:28:00,
2013-06-26 08:33:00,71.7,68.0,29.67,South,180,4.0,7.0,88,0.00,,,0.07,Wunderground v.1.15,2013-06-26 13:33:00,
2013-06-26 08:38:00,71.7,68.0,29.67,South,176,8.0,9.0,88,0.00,,,0.07,Wunderground v.1.15,2013-06-26 13:38:00,
2013-06-26 08:43:00,71.8,68.1,29.67,South,173,7.0,8.0,88,0.00,,,0.07,Wunderground v.1.15,2013-06-26 13:43:00,
2013-06-26 08:48:00,71.7,68.0,29.67,SSE,165,5.0,9.0,88,0.00,,,0.07,Wunderground v.1.15,2013-06-26 13:48:00,
2013-06-26 08:53:00,71.7,68.0,29.67,South,178,4.0,5.0,88,0.00,,,0.07,Wunderground v.1.15,2013-06-26 13:53:00,
2013-06-26 08:58:00,71.7,68.0,29.67,SSE,163,4.0,6.0,88,0.00,,,0.07,Wunderground v.1.15,2013-06-26 13:58:00,
2013-06-26 09:03:00,71.8,68.1,29.68,SSE,165,5.0,5.0,88,0.00,,,0.07,Wunderground v.1.15,2013-06-26 14:03:00,
2013-06-26 09:08:00,71.9,68.2,29.68,SSE,149,5.0,7.0,88,0.00,,,0.07,Wunderground v.1.15,2013-06-26 14:08:00,
2013-06-26 09:13:00,71.9,67.8,29.68,South,171,4.0,5.0,87,0.00,,,0.07,Wunderground v.1.15,2013-06-26 14:13:00,
2013-06-26 09:18:00,72.0,67.9,29.68,South,182,4.0,7.0,87,0.00,,,0.07,Wunderground v.1.15,2013-06-26 14:18:00,
2013-06-26 09:23:00,72.3,68.2,29.68,South,188,6.0,6.0,87,0.00,,,0.07,Wunderground v.1.15,2013-06-26 14:23:00,
2013-06-26 09:28:00,72.3,68.2,29.68,South,190,5.0,7.0,87,0.00,,,0.07,Wunderground v.1.15,2013-06-26 14:28:00,
2013-06-26 09:33:00,72.5,68.4,29.68,SSW,196,5.0,5.0,87,0.00,,,0.07,Wunderground v.1.15,2013-06-26 14:33:00,
2013-06-26 09:38:00,72.7,68.6,29.68,SSW,208,5.0,7.0,87,0.00,,,0.07,Wunderground v.1.15,2013-06-26 14:38:00,
2013-06-26 09:43:00,73.0,68.6,29.68,SSW,209,5.0,7.0,86,0.00,,,0.07,Wunderground v.1.15,2013-06-26 14:43:00,
2013-06-26 09:48:00,73.4,68.6,29.68,SSW,200,7.0,9.0,85,0.00,,,0.07,Wunderground v.1.15,2013-06-26 14:48:00,
2013-06-26 09:53:00,73.6,69.2,29.68,SSW,207,8.0,9.0,86,0.00,,,0.07,Wunderground v.1.15,2013-06-26 14:53:00,
2013-06-26 09:58:00,73.7,68.9,29.68,SSW,202,6.0,10.0,85,0.00,,,0.07,Wunderground v.1.15,2013-06-26 14:58:00,
2013-06-26 10:03:00,74.3,69.8,29.67,SSW,209,8.0,8.0,86,0.00,,,0.07,Wunderground v.1.15,2013-06-26 15:03:00,
2013-06-26 10:08:00,74.9,70.1,29.67,SW,233,7.0,11.0,85,0.00,,,0.07,Wunderground v.1.15,2013-06-26 15:08:00,
2013-06-26 10:13:00,75.6,71.1,29.68,SW,229,8.0,9.0,86,0.00,,,0.07,Wunderground v.1.15,2013-06-26 15:13:00,
2013-06-26 10:18:00,76.5,71.7,29.68,SSW,194,7.0,11.0,85,0.00,,,0.07,Wunderground v.1.15,2013-06-26 15:18:00,
2013-06-26 10:23:00,77.1,71.2,29.68,SW,219,6.0,7.0,82,0.00,,,0.07,Wunderground v.1.15,2013-06-26 15:23:00,
2013-06-26 10:28:00,77.7,72.1,29.67,SSW,199,7.0,9.0,83,0.00,,,0.07,Wunderground v.1.15,2013-06-26 15:28:00,
2013-06-26 10:33:00,78.3,72.3,29.67,SSW,198,8.0,12.0,82,0.00,,,0.07,Wunderground v.1.15,2013-06-26 15:33:00,
2013-06-26 10:38:00,78.5,71.8,29.68,South,180,5.0,12.0,80,0.00,,,0.07,Wunderground v.1.15,2013-06-26 15:38:00,
2013-06-26 10:43:00,78.8,72.8,29.68,SSW,209,10.0,10.0,82,0.00,,,0.07,Wunderground v.1.15,2013-06-26 15:43:00,
2013-06-26 10:48:00,78.9,72.6,29.68,SSW,196,9.0,11.0,81,0.00,,,0.07,Wunderground v.1.15,2013-06-26 15:48:00,
2013-06-26 10:54:00,79.3,73.3,29.68,SSW,204,5.0,6.0,82,0.00,,,0.07,Wunderground v.1.15,2013-06-26 15:54:00,
2013-06-26 10:59:00,79.6,73.3,29.69,SSW,197,6.0,10.0,81,0.00,,,0.07,Wunderground v.1.15,2013-06-26 15:59:00,
2013-06-26 11:06:00,80.0,74.4,29.69,South,184,6.0,6.0,83,0.00,,,0.07,Wunderground v.1.15,2013-06-26 16:06:00,
2013-06-26 11:12:00,80.1,74.1,29.68,SSW,205,4.0,7.0,82,0.00,,,0.07,Wunderground v.1.15,2013-06-26 16:12:00,
2013-06-26 11:18:00,80.2,74.2,29.68,SSE,167,6.0,9.0,82,0.00,,,0.07,Wunderground v.1.15,2013-06-26 16:18:00,
2013-06-26 11:23:00,80.6,74.2,29.67,South,175,9.0,9.0,81,0.00,,,0.07,Wunderground v.1.15,2013-06-26 16:23:00,
2013-06-26 11:28:00,80.9,74.9,29.67,SSW,200,10.0,11.0,82,0.00,,,0.07,Wunderground v.1.15,2013-06-26 16:28:00,
2013-06-26 11:33:00,81.0,74.2,29.67,SSW,210,12.0,12.0,80,0.00,,,0.07,Wunderground v.1.15,2013-06-26 16:33:00,
2013-06-26 11:38:00,81.0,74.2,29.66,SSW,192,8.0,17.0,80,0.00,,,0.07,Wunderground v.1.15,2013-06-26 16:38:00,
2013-06-26 11:44:00,81.2,75.5,29.65,SSW,205,12.0,12.0,83,0.00,,,0.07,Wunderground v.1.15,2013-06-26 16:44:00,
2013-06-26 11:49:00,81.1,74.7,29.65,South,191,8.0,16.0,81,0.00,,,0.07,Wunderground v.1.15,2013-06-26 16:49:00,
2013-06-26 11:54:00,81.3,74.2,29.67,SSW,196,12.0,12.0,79,0.00,,,0.07,Wunderground v.1.15,2013-06-26 16:54:00,
2013-06-26 12:00:00,81.4,74.3,29.67,South,184,9.0,10.0,79,0.00,,,0.07,Wunderground v.1.15,2013-06-26 17:00:00,
2013-06-26 12:05:00,81.5,74.4,29.67,SSW,197,6.0,12.0,79,0.00,,,0.07,Wunderground v.1.15,2013-06-26 17:05:00,
2013-06-26 12:10:00,81.3,73.8,29.67,SSW,203,8.0,11.0,78,0.00,,,0.07,Wunderground v.1.15,2013-06-26 17:10:00,
2013-06-26 12:15:00,81.1,74.7,29.68,SW,219,11.0,11.0,81,0.00,,,0.07,Wunderground v.1.15,2013-06-26 17:15:00,
2013-06-26 12:20:00,80.9,74.1,29.69,SW,215,8.0,11.0,80,0.00,,,0.07,Wunderground v.1.15,2013-06-26 17:20:00,
2013-06-26 12:25:00,81.0,75.0,29.69,SW,227,8.0,9.0,82,0.00,,,0.07,Wunderground v.1.15,2013-06-26 17:25:00,
2013-06-26 12:30:00,80.9,74.1,29.69,SW,229,7.0,10.0,80,0.00,,,0.07,Wunderground v.1.15,2013-06-26 17:30:00,
2013-06-26 12:35:00,80.9,74.5,29.68,SW,232,11.0,11.0,81,0.00,,,0.07,Wunderground v.1.15,2013-06-26 17:35:00,
2013-06-26 12:40:00,80.9,74.1,29.67,SSW,201,8.0,11.0,80,0.00,,,0.07,Wunderground v.1.15,2013-06-26 17:40:00,
2013-06-26 12:45:00,81.1,74.3,29.67,SSW,198,9.0,13.0,80,0.00,,,0.07,Wunderground v.1.15,2013-06-26 17:45:00,
2013-06-26 12:50:00,81.2,74.8,29.68,SW,225,5.0,13.0,81,0.00,,,0.07,Wunderground v.1.15,2013-06-26 17:50:00,
2013-06-26 12:55:00,81.3,74.9,29.68,SW,229,8.0,9.0,81,0.00,,,0.07,Wunderground v.1.15,2013-06-26 17:55:00,
2013-06-26 13:00:00,81.5,75.1,29.68,SSE,151,8.0,9.0,81,0.00,,,0.07,Wunderground v.1.15,2013-06-26 18:00:00,
2013-06-26 13:05:00,81.6,74.8,29.68,SSW,211,4.0,9.0,80,0.00,,,0.07,Wunderground v.1.15,2013-06-26 18:05:00,
2013-06-26 13:10:00,81.6,74.8,29.68,SW,217,5.0,8.0,80,0.00,,,0.07,Wunderground v.1.15,2013-06-26 18:10:00,
2013-06-26 13:15:00,81.8,74.6,29.68,SSW,210,5.0,10.0,79,0.00,,,0.07,Wunderground v.1.15,2013-06-26 18:15:00,
2013-06-26 13:20:00,82.1,75.7,29.68,WSW,239,8.0,10.0,81,0.00,,,0.07,Wunderground v.1.15,2013-06-26 18:20:00,
2013-06-26 13:25:00,82.5,75.3,29.68,WSW,246,10.0,11.0,79,0.00,,,0.07,Wunderground v.1.15,2013-06-26 18:25:00,
2013-06-26 13:30:00,82.7,75.1,29.68,WSW,248,8.0,11.0,78,0.00,,,0.07,Wunderground v.1.15,2013-06-26 18:30:00,
2013-06-26 13:35:00,82.8,76.0,29.68,West,267,3.0,8.0,80,0.00,,,0.07,Wunderground v.1.15,2013-06-26 18:35:00,
2013-06-26 13:40:00,83.0,75.4,29.68,SW,222,9.0,11.0,78,0.00,,,0.07,Wunderground v.1.15,2013-06-26 18:40:00,
2013-06-26 13:46:00,83.2,76.0,29.67,SW,223,6.0,7.0,79,0.00,,,0.07,Wunderground v.1.15,2013-06-26 18:46:00,
2013-06-26 13:54:00,83.3,76.5,29.67,WSW,249,5.0,6.0,80,0.00,,,0.07,Wunderground v.1.15,2013-06-26 18:54:00,
2013-06-26 13:59:00,83.4,75.8,29.67,West,259,7.0,10.0,78,0.00,,,0.07,Wunderground v.1.15,2013-06-26 18:59:00,
2013-06-26 14:04:00,83.7,75.7,29.67,West,261,7.0,10.0,77,0.00,,,0.07,Wunderground v.1.15,2013-06-26 19:04:00,
2013-06-26 14:09:00,83.7,76.1,29.67,SW,231,6.0,7.0,78,0.00,,,0.07,Wunderground v.1.15,2013-06-26 19:09:00,
2013-06-26 14:16:00,83.3,75.3,29.68,West,263,6.0,7.0,77,0.00,,,0.07,Wunderground v.1.15,2013-06-26 19:16:00,
2013-06-26 14:24:00,83.6,76.0,29.67,West,259,3.0,6.0,78,0.00,,,0.07,Wunderground v.1.15,2013-06-26 19:24:00,
2013-06-26 14:29:00,83.9,76.3,29.67,WSW,249,8.0,8.0,78,0.00,,,0.07,Wunderground v.1.15,2013-06-26 19:29:00,
2013-06-26 14:34:00,84.1,77.3,29.67,WSW,252,6.0,7.0,80,0.00,,,0.07,Wunderground v.1.15,2013-06-26 19:34:00,
2013-06-26 14:39:00,83.9,76.7,29.68,West,268,6.0,8.0,79,0.00,,,0.07,Wunderground v.1.15,2013-06-26 19:39:00,
2013-06-26 14:44:00,83.9,76.7,29.67,West,266,4.0,6.0,79,0.00,,,0.07,Wunderground v.1.15,2013-06-26 19:44:00,
2013-06-26 14:50:00,84.0,76.8,29.68,WSW,245,5.0,7.0,79,0.00,,,0.07,Wunderground v.1.15,2013-06-26 19:50:00,
2013-06-26 14:55:00,84.0,76.8,29.68,WSW,246,3.0,6.0,79,0.00,,,0.07,Wunderground v.1.15,2013-06-26 19:55:00,
2013-06-26 15:01:00,83.8,77.0,29.68,West,269,4.0,6.0,80,0.00,,,0.07,Wunderground v.1.15,2013-06-26 20:01:00,
2013-06-26 15:06:00,83.4,76.6,29.67,WSW,256,5.0,6.0,80,0.00,,,0.07,Wunderground v.1.15,2013-06-26 20:06:00,
2013-06-26 15:13:00,83.1,75.5,29.66,WSW,255,4.0,4.0,78,0.00,,,0.07,Wunderground v.1.15,2013-06-26 20:13:00,
2013-06-26 15:18:00,83.1,76.7,29.66,WSW,252,4.0,5.0,81,0.00,,,0.07,Wunderground v.1.15,2013-06-26 20:18:00,
2013-06-26 15:24:00,83.0,76.6,29.67,West,273,4.0,4.0,81,0.00,,,0.07,Wunderground v.1.15,2013-06-26 20:24:00,
2013-06-26 15:29:00,82.9,76.1,29.67,West,265,2.0,4.0,80,0.00,,,0.07,Wunderground v.1.15,2013-06-26 20:29:00,
2013-06-26 15:34:00,82.7,75.9,29.67,West,267,3.0,3.0,80,0.00,,,0.07,Wunderground v.1.15,2013-06-26 20:34:00,
2013-06-26 15:40:00,82.5,76.1,29.67,WSW,251,3.0,3.0,81,0.00,,,0.07,Wunderground v.1.15,2013-06-26 20:40:00,
2013-06-26 15:45:00,82.4,76.3,29.67,WSW,242,2.0,4.0,82,0.00,,,0.07,Wunderground v.1.15,2013-06-26 20:45:00,
2013-06-26 15:50:00,82.4,77.1,29.68,SSW,212,4.0,4.0,84,0.00,,,0.07,Wunderground v.1.15,2013-06-26 20:50:00,
2013-06-26 15:55:00,82.3,77.0,29.68,SW,222,3.0,4.0,84,0.00,,,0.07,Wunderground v.1.15,2013-06-26 20:55:00,
2013-06-26 16:00:00,82.2,76.9,29.68,WSW,238,2.0,3.0,84,0.00,,,0.07,Wunderground v.1.15,2013-06-26 21:00:00,
2013-06-26 16:05:00,82.3,77.0,29.68,WSW,248,0.0,2.0,84,0.00,,,0.07,Wunderground v.1.15,2013-06-26 21:05:00,
2013-06-26 16:10:00,82.4,77.1,29.67,WSW,248,1.0,2.0,84,0.00,,,0.07,Wunderground v.1.15,2013-06-26 21:10:00,
2013-06-26 16:15:00,82.6,76.9,29.67,WNW,301,2.0,3.0,83,0.00,,,0.07,Wunderground v.1.15,2013-06-26 21:15:00,
2013-06-26 16:20:00,82.9,76.8,29.67,WNW,301,0.0,3.0,82,0.00,,,0.07,Wunderground v.1.15,2013-06-26 21:20:00,
2013-06-26 16:25:00,83.3,76.9,29.67,NW,319,3.0,3.0,81,0.00,,,0.07,Wunderground v.1.15,2013-06-26 21:25:00,
2013-06-26 16:30:00,83.7,77.2,29.68,WNW,295,1.0,4.0,81,0.00,,,0.07,Wunderground v.1.15,2013-06-26 21:30:00,
2013-06-26 16:35:00,84.1,77.6,29.68,NW,325,1.0,3.0,81,0.00,,,0.07,Wunderground v.1.15,2013-06-26 21:35:00,
2013-06-26 16:40:00,84.4,77.6,29.68,WNW,303,3.0,5.0,80,0.00,,,0.07,Wunderground v.1.15,2013-06-26 21:40:00,
2013-06-26 16:47:00,84.3,77.5,29.67,WNW,286,1.0,2.0,80,0.00,,,0.07,Wunderground v.1.15,2013-06-26 21:47:00,
2013-06-26 16:54:00,84.0,77.5,29.68,SW,234,4.0,4.0,81,0.00,,,0.07,Wunderground v.1.15,2013-06-26 21:54:00,
2013-06-26 16:59:00,83.4,77.3,29.69,SE,143,5.0,10.0,82,6.06,,,0.17,Wunderground v.1.15,2013-06-26 21:59:00,
2013-06-26 17:04:00,81.5,76.2,29.69,WNW,294,6.0,11.0,84,0.19,,,0.27,Wunderground v.1.15,2013-06-26 22:04:00,
2013-06-26 17:09:00,80.5,76.3,29.69,West,265,2.0,7.0,87,0.07,,,0.27,Wunderground v.1.15,2013-06-26 22:09:00,
2013-06-26 17:14:00,79.8,75.6,29.69,SW,221,2.0,5.0,87,0.05,,,0.27,Wunderground v.1.15,2013-06-26 22:14:00,
2013-06-26 17:19:00,79.8,76.3,29.69,SW,221,1.0,5.0,89,0.00,,,0.27,Wunderground v.1.15,2013-06-26 22:19:00,
2013-06-26 17:24:00,79.5,76.0,29.69,SW,221,1.0,2.0,89,0.00,,,0.27,Wunderground v.1.15,2013-06-26 22:24:00,
2013-06-26 17:29:00,79.4,75.9,29.69,SW,221,1.0,2.0,89,0.00,,,0.27,Wunderground v.1.15,2013-06-26 22:29:00,
2013-06-26 17:34:00,79.4,75.5,29.69,West,268,3.0,3.0,88,0.00,,,0.27,Wunderground v.1.15,2013-06-26 22:34:00,
2013-06-26 17:39:00,79.5,76.0,29.70,WSW,242,4.0,5.0,89,2.69,,,0.30,Wunderground v.1.15,2013-06-26 22:39:00,
2013-06-26 17:44:00,79.5,76.3,29.69,WNW,298,8.0,9.0,90,0.66,,,0.38,Wunderground v.1.15,2013-06-26 22:44:00,
2013-06-26 17:49:00,79.4,75.5,29.69,NNW,329,4.0,9.0,88,0.25,,,0.41,Wunderground v.1.15,2013-06-26 22:49:00,
2013-06-26 17:54:00,79.9,75.7,29.69,West,279,3.0,7.0,87,0.09,,,0.41,Wunderground v.1.15,2013-06-26 22:54:00,
2013-06-26 17:59:00,80.5,75.6,29.69,NNW,336,3.0,7.0,85,0.05,,,0.41,Wunderground v.1.15,2013-06-26 22:59:00,
2013-06-26 18:04:00,81.1,75.1,29.68,West,273,1.0,4.0,82,0.04,,,0.41,Wunderground v.1.15,2013-06-26 23:04:00,
2013-06-26 18:09:00,81.8,75.4,29.68,WNW,288,3.0,3.0,81,0.00,,,0.41,Wunderground v.1.15,2013-06-26 23:09:00,
2013-06-26 18:15:00,82.1,74.6,29.68,WSW,252,3.0,4.0,78,0.00,,,0.41,Wunderground v.1.15,2013-06-26 23:15:00,
2013-06-26 18:20:00,82.3,74.7,29.67,WSW,247,4.0,5.0,78,0.00,,,0.41,Wunderground v.1.15,2013-06-26 23:20:00,
2013-06-26 18:25:00,82.4,74.1,29.67,West,259,2.0,5.0,76,0.00,,,0.41,Wunderground v.1.15,2013-06-26 23:25:00,
2013-06-26 18:30:00,82.4,75.2,29.67,WSW,257,4.0,5.0,79,0.00,,,0.41,Wunderground v.1.15,2013-06-26 23:30:00,
2013-06-26 18:35:00,82.3,74.7,29.67,West,272,3.0,5.0,78,0.00,,,0.41,Wunderground v.1.15,2013-06-26 23:35:00,
2013-06-26 18:40:00,82.3,75.5,29.67,WSW,248,4.0,5.0,80,0.00,,,0.41,Wunderground v.1.15,2013-06-26 23:40:00,
2013-06-26 18:45:00,82.5,76.4,29.67,WSW,254,3.0,4.0,82,0.00,,,0.41,Wunderground v.1.15,2013-06-26 23:45:00,
2013-06-26 18:50:00,82.9,76.8,29.67,WSW,257,2.0,4.0,82,0.00,,,0.41,Wunderground v.1.15,2013-06-26 23:50:00,
2013-06-26 18:55:00,83.1,76.7,29.66,WNW,289,3.0,4.0,81,0.00,,,0.41,Wunderground v.1.15,2013-06-26 23:55:00,
2013-06-26 19:00:00,83.1,76.7,29.67,West,276,2.0,3.0,81,0.00,,,0.41,Wunderground v.1.15,2013-06-27 00:00:00,
2013-06-26 19:06:00,83.1,76.3,29.67,West,259,3.0,5.0,80,0.00,,,0.41,Wunderground v.1.15,2013-06-27 00:06:00,
2013-06-26 19:11:00,83.1,77.4,29.67,West,268,4.0,5.0,83,0.00,,,0.41,Wunderground v.1.15,2013-06-27 00:11:00,
2013-06-26 19:16:00,83.2,78.2,29.66,West,268,4.0,4.0,85,0.00,,,0.41,Wunderground v.1.15,2013-06-27 00:16:00,
2013-06-26 19:24:00,83.2,77.9,29.67,West,261,6.0,6.0,84,0.00,,,0.41,Wunderground v.1.15,2013-06-27 00:24:00,
2013-06-26 19:29:00,83.1,77.8,29.67,West,270,6.0,6.0,84,0.00,,,0.41,Wunderground v.1.15,2013-06-27 00:29:00,
2013-06-26 19:34:00,83.0,77.7,29.67,West,277,3.0,6.0,84,0.00,,,0.41,Wunderground v.1.15,2013-06-27 00:34:00,
2013-06-26 19:39:00,82.9,77.9,29.67,West,280,3.0,7.0,85,0.00,,,0.41,Wunderground v.1.15,2013-06-27 00:39:00,
2013-06-26 19:44:00,82.8,77.8,29.67,West,259,4.0,5.0,85,0.00,,,0.41,Wunderground v.1.15,2013-06-27 00:44:00,
2013-06-26 19:49:00,82.8,77.8,29.67,West,277,4.0,5.0,85,0.00,,,0.41,Wunderground v.1.15,2013-06-27 00:49:00,
2013-06-26 19:54:00,82.7,77.7,29.67,West,278,2.0,4.0,85,0.00,,,0.41,Wunderground v.1.15,2013-06-27 00:54:00,
2013-06-26 19:59:00,82.5,77.5,29.67,West,273,3.0,4.0,85,0.00,,,0.41,Wunderground v.1.15,2013-06-27 00:59:00,
2013-06-26 20:04:00,82.5,77.5,29.67,WNW,283,3.0,4.0,85,0.00,,,0.41,Wunderground v.1.15,2013-06-27 01:04:00,
2013-06-26 20:09:00,82.4,77.4,29.67,West,277,3.0,4.0,85,0.00,,,0.41,Wunderground v.1.15,2013-06-27 01:09:00,
2013-06-26 20:14:00,82.3,77.3,29.68,West,270,1.0,3.0,85,0.00,,,0.41,Wunderground v.1.15,2013-06-27 01:14:00,
2013-06-26 20:19:00,82.3,77.3,29.68,West,277,1.0,3.0,85,0.00,,,0.41,Wunderground v.1.15,2013-06-27 01:19:00,
2013-06-26 20:24:00,82.1,77.1,29.68,NW,315,2.0,3.0,85,0.00,,,0.41,Wunderground v.1.15,2013-06-27 01:24:00,
2013-06-26 20:29:00,81.6,77.0,29.69,NNW,339,3.0,3.0,86,0.00,,,0.41,Wunderground v.1.15,2013-06-27 01:29:00,
2013-06-26 20:34:00,80.8,76.6,29.69,NNW,338,3.0,5.0,87,0.00,,,0.41,Wunderground v.1.15,2013-06-27 01:34:00,
2013-06-26 20:39:00,80.2,76.0,29.69,NNW,336,5.0,6.0,87,0.00,,,0.41,Wunderground v.1.15,2013-06-27 01:39:00,
2013-06-26 20:45:00,79.8,75.2,29.70,NNW,348,5.0,6.0,86,0.00,,,0.41,Wunderground v.1.15,2013-06-27 01:45:00,
2013-06-26 20:50:00,79.3,74.0,29.70,NNW,331,4.0,6.0,84,0.00,,,0.41,Wunderground v.1.15,2013-06-27 01:50:00,
2013-06-26 20:55:00,78.8,73.6,29.70,North,355,4.0,6.0,84,0.00,,,0.41,Wunderground v.1.15,2013-06-27 01:55:00,
2013-06-26 21:00:00,78.4,73.2,29.70,North,351,4.0,5.0,84,0.00,,,0.41,Wunderground v.1.15,2013-06-27 02:00:00,
2013-06-26 21:05:00,77.9,72.7,29.70,NNW,337,5.0,7.0,84,0.00,,,0.41,Wunderground v.1.15,2013-06-27 02:05:00,
2013-06-26 21:10:00,77.6,72.4,29.71,NNW,332,7.0,7.0,84,0.00,,,0.41,Wunderground v.1.15,2013-06-27 02:10:00,
2013-06-26 21:15:00,77.3,72.1,29.71,NNW,341,6.0,7.0,84,0.00,,,0.41,Wunderground v.1.15,2013-06-27 02:15:00,
2013-06-26 21:20:00,77.1,71.9,29.71,North,351,5.0,7.0,84,0.00,,,0.41,Wunderground v.1.15,2013-06-27 02:20:00,
2013-06-26 21:25:00,76.9,71.7,29.72,NNW,332,5.0,7.0,84,0.00,,,0.41,Wunderground v.1.15,2013-06-27 02:25:00,
2013-06-26 21:30:00,76.6,71.7,29.72,North,350,3.0,7.0,85,0.00,,,0.41,Wunderground v.1.15,2013-06-27 02:30:00,
2013-06-26 21:35:00,76.2,71.4,29.72,North,355,3.0,5.0,85,0.00,,,0.41,Wunderground v.1.15,2013-06-27 02:35:00,
2013-06-26 21:40:00,76.0,71.2,29.72,NNW,341,3.0,5.0,85,0.00,,,0.41,Wunderground v.1.15,2013-06-27 02:40:00,
2013-06-26 21:45:00,75.7,71.2,29.73,NNW,345,3.0,4.0,86,0.00,,,0.41,Wunderground v.1.15,2013-06-27 02:45:00,
2013-06-26 21:50:00,75.3,71.2,29.73,NNW,341,3.0,4.0,87,0.00,,,0.41,Wunderground v.1.15,2013-06-27 02:50:00,
2013-06-26 21:55:00,75.0,70.9,29.73,NNW,345,2.0,3.0,87,0.00,,,0.41,Wunderground v.1.15,2013-06-27 02:55:00,
2013-06-26 22:00:00,74.6,70.8,29.73,North,5,4.0,4.0,88,0.00,,,0.41,Wunderground v.1.15,2013-06-27 03:00:00,
2013-06-26 22:05:00,74.2,70.7,29.74,North,355,4.0,4.0,89,0.00,,,0.41,Wunderground v.1.15,2013-06-27 03:05:00,
2013-06-26 22:10:00,74.0,70.6,29.74,North,350,3.0,3.0,89,0.00,,,0.41,Wunderground v.1.15,2013-06-27 03:10:00,
2013-06-26 22:15:00,73.8,70.4,29.74,North,350,2.0,3.0,89,0.00,,,0.41,Wunderground v.1.15,2013-06-27 03:15:00,
2013-06-26 22:20:00,73.6,70.5,29.74,North,350,3.0,3.0,90,0.00,,,0.41,Wunderground v.1.15,2013-06-27 03:20:00,
2013-06-26 22:25:00,73.4,70.3,29.74,NNW,340,3.0,3.0,90,0.00,,,0.41,Wunderground v.1.15,2013-06-27 03:25:00,
2013-06-26 22:30:00,73.2,70.1,29.74,NNW,340,3.0,3.0,90,0.00,,,0.41,Wunderground v.1.15,2013-06-27 03:30:00,
2013-06-26 22:35:00,73.1,70.0,29.74,NNW,328,3.0,4.0,90,0.00,,,0.41,Wunderground v.1.15,2013-06-27 03:35:00,
2013-06-26 22:40:00,73.0,69.9,29.74,NNW,331,3.0,4.0,90,0.00,,,0.41,Wunderground v.1.15,2013-06-27 03:40:00,
2013-06-26 22:45:00,72.9,70.1,29.74,NNW,338,2.0,3.0,91,0.00,,,0.41,Wunderground v.1.15,2013-06-27 03:45:00,
2013-06-26 22:50:00,72.8,70.0,29.74,NNW,338,3.0,3.0,91,0.00,,,0.41,Wunderground v.1.15,2013-06-27 03:50:00,
2013-06-26 22:55:00,72.7,69.9,29.74,NNW,339,4.0,4.0,91,0.00,,,0.41,Wunderground v.1.15,2013-06-27 03:55:00,
2013-06-26 23:00:00,72.6,69.8,29.74,NNW,331,3.0,3.0,91,0.00,,,0.41,Wunderground v.1.15,2013-06-27 04:00:00,
2013-06-26 23:02:00,72.6,69.8,29.74,NNW,333,3.0,3.0,91,0.00,,,0.41,Wunderground v.1.15,2013-06-27 04:02:00,
2013-06-26 23:03:00,72.6,69.8,29.74,NNW,333,2.0,3.0,91,0.00,,,0.41,Wunderground v.1.15,2013-06-27 04:03:00,
2013-06-26 23:08:00,72.6,69.8,29.75,NW,317,3.0,4.0,91,0.00,,,0.41,Wunderground v.1.15,2013-06-27 04:08:00,
2013-06-26 23:13:00,72.6,69.8,29.75,NW,317,2.0,3.0,91,0.00,,,0.41,Wunderground v.1.15,2013-06-27 04:13:00,
2013-06-26 23:18:00,72.6,69.8,29.75,NW,318,3.0,3.0,91,0.00,,,0.41,Wunderground v.1.15,2013-06-27 04:18:00,
2013-06-26 23:23:00,72.5,69.7,29.75,NW,319,2.0,3.0,91,0.00,,,0.41,Wunderground v.1.15,2013-06-27 04:23:00,
2013-06-26 23:28:00,72.4,69.6,29.75,NW,319,2.0,3.0,91,0.00,,,0.41,Wunderground v.1.15,2013-06-27 04:28:00,
2013-06-26 23:33:00,72.3,69.5,29.75,NW,319,2.0,2.0,91,0.00,,,0.41,Wunderground v.1.15,2013-06-27 04:33:00,
2013-06-26 23:38:00,72.1,69.3,29.75,NW,319,2.0,3.0,91,0.00,,,0.41,Wunderground v.1.15,2013-06-27 04:38:00,
2013-06-26 23:43:00,72.0,69.2,29.74,NW,319,1.0,2.0,91,0.00,,,0.41,Wunderground v.1.15,2013-06-27 04:43:00,
2013-06-26 23:48:00,71.9,69.4,29.74,NW,323,2.0,3.0,92,0.00,,,0.41,Wunderground v.1.15,2013-06-27 04:48:00,
2013-06-26 23:53:00,72.0,69.5,29.75,NW,323,3.0,3.0,92,0.00,,,0.41,Wunderground v.1.15,2013-06-27 04:53:00,